Regional Weather Roundup
Issued by NWS

Home | Current Version | Previous Version | Graphics & Text | Print | Product List | Glossary On
Versions: 1 2 3 4 5 6 7 8 9 10 11 12 13 14 15 16 17 18 19 20 21 22 23 24 25 26 27 28 29 30 31 32 33 34 35 36 37 38 39 40 41 42 43 44 45 46 47 48 49 50
000
ASUS45 KCYS 280810
RWRWY

WYOMING REGIONAL WEATHER ROUNDUP
NATIONAL WEATHER SERVICE CHEYENNE WY
200 AM MDT MON JUL 28 2014

NOTE:  "FAIR" INDICATES FEW OR NO CLOUDS BELOW 12,000 FEET
WITH NO SIGNIFICANT WEATHER AND/OR OBSTRUCTIONS TO VISIBILITY.

WYZ001-280900-
YELLOWSTONE NATIONAL PARK

CITY           SKY/WX    TMP DP  RH WIND       PRES   REMARKS
LK YELLOWSTONE   N/A     44  35  70 NW3       30.52S
W YELLOWSTONE  NOT AVBL

$$
WYZ002>013-054>058-071-098>099-280900-
NORTHERN WYOMING

CITY           SKY/WX    TMP DP  RH WIND       PRES   REMARKS
JACKSON        CLEAR     57  37  47 CALM      30.38R
CODY           NOT AVBL
GREYBULL       CLEAR     65  42  43 CALM      30.24S
WORLAND        CLEAR     65  37  35 E9        30.25S
SHERIDAN       CLEAR     62  44  51 CALM      30.29F
BUFFALO        CLEAR     65  39  38 SE3       30.37F
GILLETTE       CLEAR     52  43  71 N3        30.34S
HULETT         FAIR      57  50  77 MISG      30.37
NEWCASTLE      FAIR      57  43  58 N5        30.36

$$
WYZ014>020-022>026-101>103-280900-
CENTRAL WYOMING

CITY           SKY/WX    TMP DP  RH WIND       PRES   REMARKS
BIG PINEY      CLEAR     56  26  31 N3        30.44R
PINEDALE       SUNNY     45  36  70 SW6       30.44S
DUBOIS         FAIR      52  28  40 NW9       30.46S
LANDER         CLEAR     64  29  26 W3        30.32S
RIVERTON       CLEAR     66  36  32 NE9       30.33S
CASPER         CLEAR     56  44  64 NW7       30.34S
DOUGLAS        CLEAR     60  48  64 SE8       30.35F

$$
WYZ021-027>030-104>119-280900-
SOUTHERN WYOMING

CITY           SKY/WX    TMP DP  RH WIND       PRES   REMARKS
EVANSTON       MOCLDY    69  24  18 N6        30.38S
KEMMERER       SUNNY     61  27  27 N10       30.43S
FORT BRIDGER   FAIR      63  17  16 N5        30.41S
ROCK SPRINGS   CLEAR     66  42  41 NE5       30.38S
DIXON          FAIR      63  46  55 E5        30.38S
RAWLINS        CLEAR     61  51  70 NE9       30.41S
SARATOGA       FAIR      55  48  76 SE7       30.43S
LARAMIE        CLEAR     56  52  86 S6        30.46S
CHEYENNE       CLEAR     62  51  67 S8        30.40F
TORRINGTON     PTCLDY    63  48  58 E12       30.32S
PINE BLUFFS    FAIR      64  45  48 SE13      30.37F

$$


USA.gov is the U.S. government's official web portal to all federal, state and local government web resources and services.